This is the latest recevied weather packets stored in our database for station/object SQ9NFI-4. If no packets are shown the sender has not sent any weather packets the latest 1 day(s).
| Time | Temp. | Humidity | Pressure | Rain* | Wind** | Luminosity | Snow |
|---|---|---|---|---|---|---|---|
| 1836274690 | 11.67° C | 95% | 1023.3 hPa | - | 0 m/s | - | - |
| 1836274538 | 11.67° C | 95% | 1023.3 hPa | - | 0 m/s | - | - |
| 1836274390 | 12.22° C | 95% | 1023.3 hPa | - | 0 m/s | - | - |
| 1836274239 | 11.67° C | 95% | 1023.3 hPa | - | 0 m/s | - | - |
| 1836274088 | 12.22° C | 95% | 1023.3 hPa | - | 0 m/s | - | - |
| 1778015077 | 12.22° C | 72% | 1008.5 hPa | 0 mm | 0 m/s | 0 W/m² | - |
| 1778014777 | 12.22° C | 65% | 1008.5 hPa | 0 mm | 0 m/s | 0 W/m² | - |
| 1778014477 | 12.78° C | 63% | 1008.5 hPa | 0 mm | 0.45 m/s, 344° | 0 W/m² | - |
| 1778014177 | 12.78° C | 66% | 1008.5 hPa | 0 mm | 0.45 m/s, 338° | 0 W/m² | - |
| 1778013877 | 12.78° C | 63% | 1008.5 hPa | 0 mm | 0.45 m/s, 348° | 0 W/m² | - |
| 1778013577 | 12.78° C | 61% | 1008.5 hPa | 0 mm | 0.89 m/s, 347° | 0 W/m² | - |
| 1778013277 | 12.78° C | 65% | 1008.5 hPa | 0 mm | 0 m/s | 0 W/m² | - |
| 1778012977 | 12.78° C | 61% | 1008.5 hPa | 0 mm | 0 m/s | 0 W/m² | - |
| 1778012677 | 12.78° C | 67% | 1008.5 hPa | 0 mm | 0.45 m/s, 335° | 0 W/m² | - |
| 1778012377 | 12.78° C | 60% | 1008.5 hPa | 0 mm | 0 m/s | 0 W/m² | - |
| 1778012077 | 13.33° C | 61% | 1008.5 hPa | 0 mm | 0.45 m/s, 338° | 0 W/m² | - |
| 1778011777 | 13.33° C | 59% | 1008.5 hPa | 0 mm | 0.45 m/s, 330° | 0 W/m² | - |
| 1778011477 | 13.33° C | 67% | 1008.5 hPa | 0 mm | 0.45 m/s, 315° | 0 W/m² | - |
| 1778011177 | 13.33° C | 62% | 1008.5 hPa | 0 mm | 0 m/s | 0 W/m² | - |
| 1778009377 | 14.44° C | 62% | 1008.1 hPa | 0 mm | 0.45 m/s, 332° | 0 W/m² | - |
| 1778003677 | 22.78° C | 24% | 1007.8 hPa | 0 mm | 0.89 m/s, 303° | 7 W/m² | - |
| 1778000377 | 26.11° C | 18% | 1007.8 hPa | 0 mm | 1.79 m/s, 241° | 44 W/m² | - |
| 1778000077 | 26.11° C | 17% | 1007.8 hPa | 0 mm | 5.81 m/s, 190° | 48 W/m² | - |
| 1777999777 | 26.67° C | 18% | 1007.8 hPa | 0 mm | 3.58 m/s, 199° | 49 W/m² | - |
| 1777999477 | 26.67° C | 18% | 1007.8 hPa | 0 mm | 1.79 m/s, 260° | 60 W/m² | - |
* Rain since midnight (hover to see other rain measurements)
** Current wind speed in m/s (hover to see current wind gust speed)